Regional Weather Roundup
Issued by NWS

Home | Current Version | Previous Version | Text Only | Print | Product List | Glossary Off
Versions: 1 2 3 4 5 6 7 8 9 10 11 12 13 14 15 16 17 18 19 20 21 22 23 24 25 26 27 28 29 30 31 32 33 34 35 36 37 38 39 40 41 42 43 44 45 46 47 48 49 50

000
ASUS43 KLSX 010810
RWRMO

WEATHER SUMMARY FOR MISSOURI
NATIONAL WEATHER SERVICE SPRINGFIELD MO
300 AM CDT TUE SEP 01 2015

NOTE: "FAIR" INDICATES FEW OR NO CLOUDS BELOW 12,000 FEET WITH NO
       SIGNIFICANT WEATHER AND/OR OBSTRUCTIONS TO VISIBILITY.
       CURRENT SKY AND/OR WEATHER CONDITIONS ARE NOT AVAILABLE FOR
       CHILLICOTHE AND FARMINGTON.

MOZ001>031-035>038-043-044-053-054-010900-
...NORTHERN AND WESTERN MISSOURI...

CITY           SKY/WX    TMP DP  RH WIND       PRES   REMARKS
KANSAS CTY INT CLEAR     74  69  85 S10       29.99S
KANSAS C DTWN  CLEAR     77  69  76 S7        29.98F
LEE`S SUMMIT   CLEAR     75  68  78 S9        30.01S
ST JOSEPH      CLEAR     71  69  93 S7        29.97S
CHILLICOTHE      N/A     70  68  93 CALM      30.00F
KIRKSVILLE     CLEAR     71  67  87 S6        30.02F

$$
MOZ066>068-077>081-088>096-101>105-010900-
...SOUTHWEST MISSOURI...

CITY           SKY/WX    TMP DP  RH WIND       PRES   REMARKS
SPRINGFIELD    CLEAR     72  67  84 S10       30.07R
JOPLIN         CLEAR     73  66  78 S8        30.04S

$$
MOZ032>034-039>042-045>050-055>058-069>072-010900-
...CENTRAL MISSOURI...

CITY           SKY/WX    TMP DP  RH WIND       PRES   REMARKS
COLUMBIA       CLEAR     72  69  90 S6        30.05S
JEFFERSON CITY CLEAR     75  69  81 E6        30.04S
ROLLA          CLEAR     71  68  90 S9        30.06S
SEDALIA        CLEAR     74  68  81 S7        30.04S
WHITEMAN AFB   CLEAR     72  68  88 SW8       30.01S
WARRENSBURG    CLEAR     72  68  88 S6        30.01S
OSAGE BEACH    CLEAR     72  66  83 CALM      30.06S

$$
MOZ051-052-059>065-010900-
...EAST CENTRAL MISSOURI...

CITY           SKY/WX    TMP DP  RH WIND       PRES   REMARKS
ST LOUIS INTL  CLEAR     78  70  76 S3        30.06S
SPIRIT OF STL  CLEAR     73  71  93 CALM      30.04S
ST CHARLES     CLEAR     72  71  97 E5        30.04S

$$
MOZ072>076-082>087-097>100-106>115-010900-
...SOUTH CENTRAL AND SOUTHEAST MISSOURI...

CITY           SKY/WX    TMP DP  RH WIND       PRES   REMARKS
CAPE GIRARDEAU CLEAR     67  66  97 CALM      30.08S
FARMINGTON     CLEAR     72  70  94 S7        30.11S
POPLAR BLUFF   CLEAR     69  67  93 CALM      30.07S FOG
WEST PLAINS    CLEAR     72  68  87 S3        30.11S

$$


USA.gov is the U.S. government's official web portal to all federal, state and local government web resources and services.